Total_Precipitation_Accumulation
1.17 1.16 1.04 0.94 0.95 0.99 1.11 1.17 1.07 0.89 0.81 0.82 0.69 0.56 0.53 0.47 0.39 0.36 0.37 0.29 0.20 0.15 0.12 0.12 0.16 0.19 0.26 0.38 0.53 0.64 0.72 0.78 0.83 0.87 0.92 0.99 1.08 1.20
1.06 1.06 1.04 1.01 1.04 1.00 1.08 1.16 1.17 1.05 0.79 0.82 0.77 0.57 0.59 0.40 0.36 0.34 0.31 0.26 0.18 0.14 0.10 0.10 0.12 0.16 0.19 0.25 0.34 0.46 0.57 0.65 0.73 0.80 0.83 0.86 0.88 0.96
0.79 0.79 0.77 0.79 0.83 0.82 0.86 0.91 1.01 1.03 0.79 0.79 0.95 0.80 0.73 0.58 0.46 0.42 0.29 0.22 0.22 0.17 0.13 0.10 0.10 0.13 0.18 0.20 0.23 0.29 0.37 0.44 0.51 0.64 0.77 0.86 0.91 0.97
0.69 0.65 0.59 0.62 0.67 0.66 0.68 0.73 0.84 0.98 0.89 0.77 0.86 0.91 0.85 0.69 0.60 0.53 0.39 0.27 0.28 0.25 0.16 0.13 0.12 0.13 0.18 0.21 0.21 0.22 0.26 0.31 0.36 0.43 0.54 0.64 0.75 0.86
0.52 0.46 0.42 0.44 0.50 0.53 0.57 0.61 0.67 0.89 0.91 0.82 0.80 0.94 0.93 0.79 0.77 0.64 0.58 0.56 0.40 0.33 0.22 0.16 0.16 0.17 0.19 0.24 0.24 0.24 0.24 0.26 0.29 0.36 0.45 0.54 0.61 0.67
0.41 0.33 0.29 0.33 0.39 0.44 0.49 0.53 0.56 0.64 0.73 0.77 0.79 0.88 0.90 0.78 0.86 0.82 0.74 0.70 0.61 0.47 0.39 0.25 0.20 0.22 0.24 0.25 0.27 0.30 0.32 0.32 0.34 0.40 0.45 0.52 0.58 0.64
0.37 0.28 0.25 0.26 0.28 0.32 0.34 0.41 0.46 0.50 0.54 0.62 0.69 0.77 0.89 0.81 0.74 0.78 0.78 0.76 0.76 0.76 0.78 0.54 0.31 0.26 0.27 0.28 0.31 0.37 0.45 0.48 0.50 0.55 0.60 0.64 0.68 0.72
0.31 0.26 0.22 0.21 0.22 0.24 0.25 0.26 0.27 0.30 0.36 0.46 0.53 0.61 0.72 0.78 0.71 0.73 0.77 0.77 0.81 0.85 0.95 1.02 0.77 0.58 0.47 0.31 0.28 0.35 0.47 0.57 0.62 0.69 0.75 0.84 0.92 0.91
0.24 0.21 0.17 0.15 0.15 0.13 0.13 0.15 0.18 0.17 0.19 0.29 0.32 0.32 0.38 0.44 0.53 0.68 0.82 0.85 0.92 1.03 1.05 1.20 1.33 1.15 0.77 0.51 0.39 0.32 0.39 0.51 0.59 0.66 0.77 0.82 0.94 1.09
0.24 0.20 0.16 0.13 0.13 0.11 0.11 0.14 0.12 0.08 0.08 0.11 0.13 0.15 0.20 0.24 0.28 0.36 0.56 0.82 0.94 1.07 1.14 1.33 1.52 1.77 1.41 0.92 0.68 0.50 0.47 0.51 0.57 0.62 0.69 0.78 0.84 0.94
0.29 0.24 0.20 0.15 0.14 0.12 0.12 0.11 0.09 0.07 0.06 0.09 0.12 0.14 0.17 0.18 0.19 0.23 0.27 0.38 0.64 0.99 1.19 1.39 1.54 1.72 2.07 1.71 1.07 0.67 0.49 0.45 0.49 0.56 0.61 0.70 0.75 0.78
0.35 0.32 0.26 0.19 0.18 0.15 0.13 0.10 0.08 0.05 0.04 0.06 0.11 0.14 0.14 0.16 0.16 0.16 0.15 0.18 0.29 0.53 0.75 0.88 1.05 1.25 1.76 2.12 1.82 1.22 0.80 0.58 0.46 0.46 0.50 0.59 0.70 0.68
0.37 0.37 0.31 0.25 0.20 0.17 0.15 0.13 0.09 0.07 0.06 0.06 0.08 0.12 0.15 0.16 0.14 0.14 0.15 0.17 0.21 0.24 0.29 0.44 0.70 0.87 1.07 1.49 1.75 1.70 1.36 1.06 0.83 0.65 0.58 0.58 0.64 0.70
0.45 0.41 0.36 0.31 0.25 0.19 0.16 0.15 0.14 0.12 0.10 0.09 0.08 0.10 0.12 0.14 0.15 0.14 0.15 0.16 0.18 0.22 0.25 0.34 0.60 0.74 0.90 1.13 1.33 1.45 1.47 1.36 1.23 1.11 1.00 0.92 0.83 0.81
0.56 0.52 0.47 0.39 0.32 0.26 0.21 0.20 0.18 0.15 0.12 0.11 0.10 0.09 0.09 0.10 0.11 0.12 0.12 0.13 0.13 0.10 0.09 0.15 0.27 0.38 0.56 0.83 1.00 1.03 1.10 1.20 1.25 1.25 1.25 1.21 1.13 1.04
0.64 0.56 0.53 0.47 0.40 0.36 0.30 0.26 0.21 0.19 0.16 0.11 0.09 0.09 0.08 0.10 0.11 0.10 0.10 0.11 0.12 0.11 0.09 0.08 0.11 0.17 0.27 0.38 0.47 0.52 0.59 0.73 0.90 1.01 1.17 1.34 1.39 1.38
0.65 0.56 0.53 0.48 0.43 0.41 0.35 0.30 0.25 0.24 0.22 0.15 0.10 0.09 0.08 0.10 0.11 0.09 0.08 0.07 0.07 0.08 0.08 0.07 0.08 0.10 0.15 0.24 0.32 0.36 0.40 0.42 0.49 0.66 0.88 1.17 1.27 1.16
0.60 0.55 0.51 0.47 0.42 0.39 0.37 0.34 0.30 0.26 0.22 0.16 0.10 0.08 0.08 0.08 0.09 0.09 0.07 0.06 0.05 0.05 0.07 0.07 0.07 0.11 0.17 0.19 0.15 0.21 0.32 0.36 0.39 0.46 0.55 0.68 0.77 0.71
0.54 0.50 0.44 0.44 0.43 0.38 0.34 0.32 0.31 0.25 0.20 0.16 0.11 0.09 0.08 0.07 0.06 0.08 0.07 0.06 0.05 0.06 0.08 0.10 0.11 0.11 0.15 0.22 0.21 0.10 0.12 0.21 0.30 0.42 0.47 0.46 0.45 0.39
0.48 0.45 0.38 0.37 0.38 0.37 0.32 0.27 0.27 0.24 0.18 0.15 0.11 0.08 0.07 0.06 0.05 0.04 0.04 0.04 0.04 0.05 0.06 0.08 0.10 0.12 0.13 0.16 0.21 0.23 0.13 0.10 0.16 0.25 0.33 0.35 0.32 0.23
0.41 0.39 0.33 0.30 0.32 0.33 0.29 0.23 0.21 0.19 0.15 0.11 0.09 0.07 0.05 0.04 0.04 0.03 0.03 0.03 0.03 0.05 0.06 0.07 0.08 0.10 0.15 0.21 0.25 0.31 0.29 0.16 0.09 0.10 0.18 0.26 0.32 0.31
0.30 0.31 0.28 0.26 0.27 0.28 0.23 0.18 0.15 0.14 0.11 0.09 0.07 0.06 0.04 0.02 0.01 0.02 0.02 0.03 0.02 0.03 0.04 0.05 0.07 0.09 0.15 0.23 0.28 0.29 0.30 0.29 0.21 0.12 0.09 0.12 0.19 0.27
0.24 0.25 0.23 0.20 0.20 0.20 0.15 0.12 0.11 0.10 0.07 0.06 0.05 0.04 0.03 0.02 0.01 0.01 0.01 0.01 0.02 0.02 0.03 0.04 0.06 0.10 0.13 0.18 0.24 0.28 0.28 0.27 0.29 0.29 0.23 0.11 0.06 0.07